Wind_Speed
2 5 5 4 4 5 1 2 5 5 4 5 8 9 9 6 2 2 14 21 19 19 18 17 15 13 12 10 9 9 10 11 13 13 14 15 16 19 16 12 8 9 12 15 18 20 22 25 23
2 4 5 1 4 4 3 3 6 4 9 11 8 6 2 2 4 19 21 17 19 16 16 16 15 13 12 11 8 8 10 11 13 13 13 14 14 16 12 9 7 8 13 15 17 20 23 24 21
2 6 3 4 3 3 3 5 8 9 9 7 4 6 5 4 14 18 15 17 18 17 16 16 14 13 13 11 8 8 9 10 12 12 13 13 12 13 11 9 9 11 13 15 17 20 22 22 20
3 3 2 4 2 4 5 8 16 9 7 7 9 8 8 4 23 16 20 18 15 16 16 15 15 14 14 12 8 7 8 9 11 12 12 11 10 10 8 8 9 10 12 14 17 19 21 21 19
3 1 3 3 1 3 5 18 14 5 10 7 6 5 8 18 13 18 22 18 18 17 16 17 16 15 14 13 10 7 8 8 10 10 10 10 9 8 7 8 9 9 11 13 15 17 18 18 18
1 2 4 3 3 4 3 11 15 11 15 10 6 10 8 13 14 19 22 20 17 16 16 17 17 16 14 13 11 8 7 8 8 8 8 9 9 8 8 8 9 9 10 12 14 16 17 17 18
4 4 3 1 4 3 4 7 9 11 11 7 6 4 9 16 14 27 23 16 15 16 16 17 19 17 15 14 12 9 7 8 7 7 7 8 8 9 9 9 9 9 9 11 13 14 15 15 14
2 4 4 3 0 2 5 5 3 11 3 13 8 6 7 17 22 22 25 19 17 18 16 17 19 19 17 16 14 11 10 9 8 7 6 7 8 9 10 10 10 10 9 10 11 11 13 13 12
3 4 3 3 2 4 10 3 1 7 11 5 7 7 7 17 22 24 25 21 20 18 18 17 21 20 18 17 16 14 12 11 9 8 7 6 6 7 9 9 9 10 9 10 10 10 11 12 11
4 4 3 0 2 3 7 5 7 4 8 5 8 7 10 17 21 29 31 28 27 23 21 20 20 21 21 19 18 16 15 13 12 10 9 8 6 7 7 7 8 8 8 9 10 11 10 9 9
4 5 3 2 4 5 3 3 6 6 2 10 15 15 20 18 19 25 29 30 29 26 25 23 23 21 20 21 19 19 18 16 14 14 14 12 10 9 9 7 7 8 7 7 9 9 7 6 6
2 2 4 2 2 2 3 3 1 9 4 1 13 16 21 21 20 23 29 32 32 31 28 24 25 24 22 21 20 18 21 20 18 17 18 18 14 11 11 10 8 9 7 4 3 4 4 6 5
3 1 4 4 1 1 2 2 5 8 11 12 7 15 22 21 19 19 22 29 33 33 30 27 25 26 27 26 24 23 22 21 20 20 19 19 18 14 15 11 11 11 8 9 4 5 4 5 7
1 3 4 3 3 2 1 3 2 6 9 17 18 15 18 21 20 20 22 25 30 33 35 33 30 29 29 29 29 28 24 24 23 22 21 25 21 22 17 16 11 12 10 10 10 10 7 7 8
2 2 1 6 6 2 1 5 8 20 14 11 20 17 19 21 21 24 23 23 24 25 26 30 35 34 34 33 29 28 27 26 25 24 23 25 24 25 24 20 17 14 15 15 14 14 13 14 13
2 3 1 2 9 2 4 8 9 10 14 21 16 15 22 22 24 25 24 24 24 25 27 26 28 31 35 39 35 31 32 29 27 26 25 25 25 25 28 24 24 20 20 22 19 18 17 16 17
3 2 4 2 7 3 3 5 4 7 2 16 19 18 19 23 26 25 25 25 26 27 29 29 29 30 30 31 35 33 34 35 33 32 28 25 25 26 29 28 26 27 26 25 23 22 23 21 20
4 3 3 4 4 3 2 8 11 26 23 25 25 24 21 23 28 27 27 28 25 28 30 32 33 32 31 30 35 36 34 34 35 37 37 36 33 31 30 33 30 30 32 29 28 27 26 25 24
4 3 0 2 2 3 6 7 12 25 23 24 30 31 29 28 24 22 26 28 29 28 31 34 37 36 36 36 37 42 41 38 36 36 34 33 37 36 35 35 36 33 36 34 32 31 31 30 30
2 2 3 1 1 2 4 12 10 18 22 28 33 34 32 30 28 26 27 28 31 30 30 33 38 39 38 38 36 40 42 40 39 36 36 35 36 37 37 39 37 38 38 39 38 36 35 35 36
2 4 3 2 3 2 2 9 6 6 10 18 23 28 30 32 30 26 25 29 30 33 31 30 34 38 39 38 37 37 39 39 40 41 40 40 41 40 38 40 41 40 41 42 41 40 41 42 38
2 1 5 3 4 3 4 6 5 7 11 7 17 22 25 24 21 19 23 27 29 31 30 30 29 32 35 37 39 40 41 42 41 42 41 40 40 42 43 40 42 44 42 43 46 42 41 47 43
5 0 3 3 2 2 2 1 7 5 6 10 15 10 6 6 9 12 12 13 21 22 27 28 28 29 33 37 40 40 40 41 40 39 39 40 40 41 44 44 44 45 45 46 45 48 48 48 44
7 5 6 5 3 3 8 8 5 4 6 2 4 6 5 3 2 3 6 12 14 15 19 23 27 30 31 34 37 39 39 39 38 39 39 39 39 38 40 46 45 48 48 47 48 48 48 49 47
4 6 1 3 2 6 3 2 6 8 9 3 5 5 2 2 2 5 9 11 12 13 15 19 23 24 25 28 31 33 34 35 36 37 39 39 39 41 40 40 44 49 51 50 49 48 47 49 50
7 7 5 7 4 5 3 6 5 10 14 3 2 2 1 6 9 10 10 9 9 10 13 15 17 18 19 21 23 25 28 30 32 34 34 37 38 38 36 36 36 40 45 50 50 49 48 44 46
5 5 5 4 2 3 5 6 8 7 9 15 13 5 8 7 8 8 7 8 6 7 7 7 10 10 11 13 16 18 21 24 26 27 29 31 33 35 34 34 34 35 40 40 48 49 47 43 49
6 5 3 2 1 4 4 5 6 7 12 9 6 8 8 10 11 9 6 4 5 4 2 2 4 6 7 8 11 13 16 18 21 23 26 27 29 30 32 33 32 32 35 37 44 48 47 47 45
2 3 3 4 5 5 2 6 6 7 4 8 9 10 11 9 10 14 14 13 14 13 11 12 16 17 12 11 14 17 22 25 25 27 27 28 29 30 31 32 32 29 31 35 41 44 47 44 46
3 7 6 4 3 4 4 13 3 8 7 12 10 11 8 5 4 9 13 15 17 20 24 26 23 23 19 19 22 24 26 30 32 31 30 30 31 30 32 32 32 31 29 30 33 41 45 45 47
Wind_Direction
288 315 309 338 50 71 237 42 128 92 52 90 80 71 119 78 66 167 145 151 156 145 153 153 148 136 128 120 92 84 90 91 93 93 95 99 108 115 108 110 108 103 95 95 95 96 101 100 93
338 327 328 9 82 82 306 106 84 108 120 107 91 73 65 97 110 135 137 157 167 154 156 158 154 152 144 126 116 102 97 96 90 88 89 93 106 117 113 120 115 97 100 100 98 104 110 110 102
39 334 328 104 108 121 159 140 140 115 115 115 102 75 87 103 140 140 159 159 172 172 168 165 161 158 152 145 135 113 106 98 91 87 86 90 102 118 119 119 104 99 103 103 106 111 115 115 110
61 327 278 82 145 335 101 154 126 113 93 108 111 85 94 151 147 153 159 173 180 173 171 168 166 164 160 151 143 123 114 107 97 92 89 92 102 119 116 113 107 103 104 108 111 115 120 117 104
62 279 25 37 16 132 97 147 134 129 137 141 113 148 107 148 170 162 165 172 171 179 179 174 173 169 165 162 158 140 129 121 115 108 97 94 98 104 106 105 103 104 105 110 115 123 126 124 113
85 47 40 355 145 139 86 140 132 127 133 134 117 121 143 156 170 166 165 169 170 173 180 180 178 173 171 172 169 161 150 140 130 118 105 100 98 97 103 108 108 107 108 113 122 131 135 133 125
116 82 225 293 243 124 164 150 146 138 137 157 124 86 145 178 195 162 165 177 178 180 189 189 185 182 180 181 181 175 167 156 151 137 124 113 109 109 108 109 109 111 115 120 128 136 137 137 137
130 97 350 303 143 119 158 129 144 140 136 147 155 151 175 178 169 165 164 177 182 184 192 199 194 191 188 189 189 187 182 173 170 163 148 136 129 123 118 115 110 108 112 120 129 136 142 146 148
132 68 292 293 318 140 158 113 122 105 135 149 156 151 163 170 166 167 166 183 189 196 203 208 200 196 197 196 196 195 194 192 185 187 183 168 154 143 135 127 119 113 114 123 132 140 146 154 158
107 119 230 321 14 133 168 153 175 157 138 148 161 165 163 170 181 178 177 188 194 195 198 202 206 204 202 204 204 203 203 204 202 203 202 200 188 171 160 145 134 125 123 129 140 150 157 165 162
170 177 202 27 59 60 138 176 182 153 211 207 201 180 177 182 190 190 187 190 204 203 206 202 202 206 214 210 212 213 212 212 211 207 212 209 206 202 188 179 163 148 136 150 156 161 168 183 166
160 217 112 126 49 52 81 316 241 196 216 315 215 215 193 199 203 201 199 196 204 210 217 221 206 206 206 212 219 223 221 218 215 214 214 218 219 211 196 200 197 183 167 189 171 190 188 204 224
134 211 92 124 34 154 270 251 259 258 240 243 256 197 207 210 215 214 211 210 205 214 218 219 210 207 208 214 217 220 219 222 222 225 218 224 217 220 211 207 211 213 204 229 218 245 234 217 230
135 117 154 154 184 218 191 260 13 248 237 234 232 224 218 218 223 221 217 214 219 219 220 225 223 216 213 212 214 217 223 222 222 226 226 223 228 217 227 218 222 228 228 239 245 249 245 253 243
95 38 310 197 189 177 139 309 231 256 242 230 227 233 227 228 228 231 233 231 229 232 230 221 223 222 221 219 218 218 223 223 224 230 231 232 236 232 227 232 231 243 244 243 245 244 244 236 231
116 57 30 294 149 198 118 271 280 292 225 229 232 235 231 230 237 240 241 241 240 238 238 237 230 227 227 224 225 225 221 228 228 228 230 233 236 241 237 240 236 238 243 245 235 249 243 233 242
351 200 204 272 190 128 138 270 273 24 333 247 251 247 247 245 243 245 245 246 244 242 241 240 240 237 234 232 229 225 226 228 229 230 230 232 239 242 243 245 241 238 239 245 249 239 235 235 232
195 210 272 204 232 120 208 258 279 281 286 280 271 262 253 246 245 245 245 244 247 246 242 243 244 244 239 237 233 232 231 229 230 230 235 235 239 244 243 239 241 237 238 241 244 243 234 232 236
135 132 134 165 212 155 226 262 268 281 280 269 263 258 253 252 255 246 246 246 245 244 240 239 240 241 240 236 228 229 232 234 235 236 234 232 233 241 246 245 240 241 238 242 238 236 231 223 224
170 133 282 63 138 159 279 277 258 261 260 257 259 261 258 258 256 253 249 244 245 247 245 242 241 243 243 243 240 235 236 238 241 241 240 239 231 233 239 247 242 241 240 236 234 236 228 226 230
165 169 219 211 327 323 20 293 302 285 254 279 267 265 265 261 260 256 249 247 246 243 244 247 248 246 245 246 245 242 240 241 240 241 240 238 238 237 236 241 244 242 241 242 239 237 235 239 236
203 254 225 136 71 241 73 286 277 269 283 296 283 265 263 267 265 263 251 244 243 246 248 249 253 253 250 249 248 246 245 243 245 246 246 244 242 241 239 239 244 244 245 245 242 241 245 246 247
203 19 130 113 141 27 309 156 271 290 285 271 272 286 287 270 270 253 249 251 250 247 250 252 251 253 254 253 251 250 249 250 251 253 255 251 247 245 245 243 243 244 246 243 244 238 238 243 253
151 75 41 42 80 283 204 187 280 215 221 256 354 118 95 37 320 232 228 233 249 247 240 244 246 250 253 253 253 254 254 255 255 254 255 256 255 252 248 246 246 245 245 247 244 245 244 245 247
97 90 335 342 353 235 339 219 243 278 250 240 242 241 307 343 327 290 300 275 255 248 248 243 246 253 254 254 254 257 259 260 260 260 261 261 261 261 260 256 252 248 247 247 244 246 245 247 246
195 163 160 197 204 270 328 244 263 251 282 235 329 40 29 304 298 288 285 278 263 254 245 249 254 259 257 257 260 260 261 262 265 264 265 268 270 271 270 267 262 258 252 245 247 247 244 251 248
207 209 189 87 23 43 234 293 311 316 309 323 316 8 57 23 354 322 309 286 279 276 278 272 270 267 273 272 267 264 264 262 265 269 269 271 273 274 275 273 269 265 258 250 247 248 244 250 247
138 169 70 2 161 268 275 275 222 303 286 269 81 65 43 29 24 25 24 358 347 348 339 85 56 22 348 326 307 291 283 278 275 269 267 268 272 273 273 273 270 266 259 255 246 249 249 246 247
126 179 176 150 156 185 276 263 225 227 199 112 110 74 25 23 53 57 58 69 57 44 23 348 333 337 324 313 311 306 296 282 274 269 267 265 266 268 271 273 272 266 261 254 245 248 251 246 253
163 188 158 147 235 228 182 255 104 122 124 115 95 58 42 29 75 23 12 353 344 340 339 337 325 318 306 300 300 306 303 285 274 270 271 271 269 268 271 272 273 270 261 255 247 246 248 248 253
Height
1536 1535 1534 1534 1544 1549 1553 1548 1540 1545 1547 1548 1549 1551 1557 1559 1560 1570 1562 1566 1570 1572 1574 1576 1578 1578 1580 1581 1581 1583 1583 1584 1584 1584 1584 1584 1585 1586 1587 1587 1586 1586 1585 1585 1585 1586 1586 1586 1584
1535 1534 1534 1535 1551 1566 1559 1543 1548 1545 1547 1548 1550 1553 1556 1562 1560 1562 1564 1568 1571 1572 1574 1577 1578 1580 1582 1583 1584 1585 1586 1586 1586 1586 1586 1586 1587 1588 1589 1588 1588 1587 1587 1587 1587 1588 1588 1587 1586
1534 1533 1535 1539 1553 1558 1555 1545 1546 1546 1547 1548 1551 1554 1557 1561 1561 1563 1564 1567 1571 1574 1576 1577 1579 1581 1582 1584 1586 1587 1587 1588 1588 1588 1588 1588 1589 1590 1590 1589 1589 1589 1589 1589 1589 1590 1590 1589 1590
1533 1535 1536 1545 1548 1541 1540 1544 1542 1545 1547 1548 1551 1555 1559 1560 1562 1564 1566 1569 1571 1573 1576 1578 1580 1582 1583 1585 1586 1587 1588 1589 1589 1590 1590 1590 1590 1591 1590 1591 1590 1590 1590 1590 1591 1592 1591 1592 1592
1534 1535 1544 1548 1543 1538 1539 1539 1539 1542 1546 1548 1550 1556 1559 1562 1563 1565 1566 1569 1571 1573 1576 1578 1580 1582 1583 1585 1587 1588 1588 1589 1590 1591 1591 1591 1592 1592 1592 1592 1592 1592 1592 1592 1593 1594 1593 1594 1594
1534 1537 1554 1558 1544 1538 1538 1539 1539 1541 1545 1548 1551 1554 1559 1561 1563 1565 1567 1569 1572 1574 1576 1578 1580 1582 1584 1585 1587 1588 1588 1589 1591 1592 1592 1592 1593 1593 1593 1593 1593 1594 1594 1594 1595 1595 1595 1595 1595
1534 1542 1550 1547 1547 1541 1539 1538 1539 1541 1543 1547 1549 1554 1559 1560 1561 1565 1568 1570 1572 1574 1576 1578 1580 1582 1584 1586 1587 1588 1589 1589 1591 1592 1593 1593 1593 1594 1594 1594 1595 1594 1595 1595 1596 1596 1596 1597 1597
1534 1538 1544 1544 1544 1544 1539 1539 1539 1540 1544 1545 1547 1552 1557 1556 1560 1563 1567 1569 1572 1574 1575 1576 1579 1581 1582 1585 1586 1588 1589 1589 1591 1593 1593 1594 1594 1595 1595 1595 1595 1595 1596 1597 1597 1597 1598 1598 1598
1534 1547 1552 1544 1538 1540 1538 1540 1540 1541 1543 1545 1546 1548 1550 1553 1558 1562 1565 1568 1570 1573 1574 1575 1577 1579 1582 1584 1586 1587 1589 1589 1591 1592 1594 1594 1595 1596 1596 1596 1596 1597 1597 1598 1598 1598 1599 1599 1599
1535 1548 1542 1537 1537 1537 1537 1540 1541 1543 1543 1545 1545 1547 1548 1552 1555 1558 1560 1563 1566 1569 1571 1573 1575 1578 1580 1582 1584 1585 1587 1588 1590 1592 1593 1594 1595 1595 1596 1597 1597 1598 1598 1599 1599 1599 1599 1599 1599
1534 1542 1535 1537 1536 1536 1537 1539 1541 1541 1544 1542 1542 1544 1547 1549 1552 1555 1558 1560 1561 1565 1567 1570 1572 1575 1577 1579 1581 1583 1584 1586 1588 1590 1592 1592 1593 1594 1596 1596 1597 1597 1598 1599 1599 1600 1600 1599 1600
1534 1532 1532 1535 1535 1536 1537 1539 1539 1539 1540 1539 1540 1541 1543 1545 1548 1551 1554 1556 1558 1560 1563 1565 1568 1572 1574 1577 1579 1581 1582 1583 1585 1587 1588 1589 1591 1593 1594 1595 1596 1596 1597 1598 1599 1601 1601 1600 1599
1534 1533 1533 1534 1536 1536 1536 1537 1539 1537 1538 1539 1539 1539 1540 1543 1545 1547 1551 1554 1557 1558 1560 1561 1564 1567 1570 1574 1576 1577 1579 1580 1582 1585 1586 1586 1588 1591 1592 1593 1594 1595 1596 1598 1598 1599 1600 1600 1599
1533 1533 1533 1534 1535 1536 1536 1537 1538 1534 1534 1536 1536 1537 1538 1539 1541 1544 1546 1549 1551 1554 1556 1559 1559 1562 1565 1568 1571 1573 1576 1578 1579 1581 1583 1583 1585 1587 1589 1591 1592 1594 1594 1596 1597 1598 1599 1599 1599
1531 1535 1534 1533 1534 1536 1535 1537 1533 1530 1532 1533 1535 1535 1535 1536 1538 1538 1540 1543 1545 1547 1551 1554 1556 1559 1560 1563 1566 1569 1572 1575 1577 1578 1581 1581 1582 1584 1586 1588 1589 1592 1593 1594 1595 1596 1597 1597 1596
1534 1535 1543 1534 1533 1536 1535 1545 1529 1528 1527 1529 1531 1533 1533 1533 1533 1534 1536 1537 1540 1543 1544 1548 1551 1554 1556 1558 1561 1564 1568 1570 1573 1574 1576 1578 1580 1581 1582 1585 1587 1588 1589 1590 1591 1592 1593 1594 1594
1538 1548 1543 1537 1533 1534 1536 1540 1528 1528 1529 1529 1529 1529 1529 1529 1529 1529 1530 1532 1534 1537 1539 1541 1543 1546 1550 1553 1556 1559 1563 1565 1567 1570 1571 1573 1574 1576 1578 1580 1582 1584 1584 1585 1587 1588 1589 1589 1591
1546 1544 1536 1538 1534 1533 1536 1538 1528 1526 1527 1526 1525 1523 1523 1522 1521 1524 1525 1526 1529 1531 1534 1535 1538 1541 1545 1549 1551 1553 1556 1558 1561 1564 1566 1569 1570 1570 1572 1573 1576 1578 1579 1580 1582 1583 1584 1586 1586
1530 1534 1538 1536 1531 1533 1536 1533 1528 1521 1522 1519 1517 1516 1516 1516 1517 1518 1521 1522 1524 1526 1528 1529 1531 1534 1539 1541 1543 1545 1546 1550 1553 1556 1559 1561 1563 1565 1566 1567 1570 1572 1573 1575 1577 1578 1578 1579 1581
1529 1534 1538 1535 1532 1532 1533 1530 1521 1517 1510 1509 1508 1509 1509 1510 1511 1513 1514 1517 1518 1520 1522 1523 1524 1527 1531 1534 1537 1540 1542 1544 1547 1550 1552 1554 1556 1558 1560 1560 1563 1565 1568 1568 1570 1571 1572 1574 1575
1529 1536 1534 1537 1533 1531 1534 1533 1519 1509 1504 1503 1503 1502 1502 1502 1503 1505 1507 1509 1511 1513 1515 1517 1519 1521 1524 1527 1531 1534 1536 1539 1541 1541 1543 1546 1550 1551 1553 1553 1555 1557 1559 1561 1562 1564 1565 1566 1569
1533 1530 1529 1532 1541 1550 1535 1555 1528 1510 1506 1500 1497 1497 1495 1496 1498 1499 1500 1502 1504 1506 1510 1512 1514 1516 1518 1521 1522 1524 1527 1528 1531 1534 1537 1540 1543 1544 1545 1546 1547 1549 1551 1553 1554 1557 1558 1558 1559
1530 1528 1529 1532 1540 1542 1543 1554 1526 1515 1511 1501 1491 1494 1493 1493 1495 1495 1497 1498 1500 1503 1506 1509 1510 1511 1512 1514 1516 1518 1520 1523 1525 1529 1531 1534 1536 1537 1538 1539 1539 1539 1541 1543 1545 1547 1548 1550 1550
1526 1530 1536 1541 1548 1559 1543 1544 1534 1514 1503 1497 1493 1494 1494 1494 1495 1495 1495 1496 1497 1499 1502 1504 1506 1507 1508 1509 1511 1512 1515 1516 1519 1521 1522 1525 1529 1531 1532 1532 1531 1531 1531 1532 1534 1538 1541 1541 1542
1526 1537 1557 1562 1569 1553 1539 1542 1520 1501 1496 1493 1493 1494 1495 1495 1495 1496 1496 1496 1495 1496 1498 1500 1501 1503 1505 1505 1506 1508 1509 1511 1513 1516 1517 1518 1519 1520 1523 1524 1523 1522 1522 1523 1525 1528 1531 1533 1532
1530 1531 1552 1560 1564 1550 1538 1535 1508 1493 1489 1492 1491 1493 1494 1494 1493 1493 1493 1493 1493 1493 1495 1497 1499 1499 1500 1501 1502 1503 1504 1505 1506 1507 1508 1509 1509 1510 1513 1513 1514 1514 1514 1516 1517 1518 1520 1523 1524
1530 1533 1528 1541 1577 1564 1536 1518 1501 1492 1490 1488 1490 1492 1492 1493 1492 1491 1490 1491 1492 1493 1494 1496 1497 1498 1497 1498 1498 1499 1499 1500 1499 1500 1501 1500 1501 1501 1502 1503 1504 1504 1504 1505 1508 1509 1512 1514 1515
1516 1520 1539 1550 1560 1562 1535 1525 1516 1499 1494 1486 1491 1493 1495 1494 1493 1491 1490 1491 1492 1493 1494 1496 1496 1497 1497 1497 1497 1496 1495 1495 1495 1495 1493 1493 1492 1492 1493 1494 1494 1495 1496 1496 1499 1500 1503 1504 1505
1520 1521 1523 1528 1539 1545 1549 1522 1497 1492 1491 1491 1492 1494 1495 1496 1495 1494 1493 1492 1494 1496 1497 1497 1496 1496 1496 1495 1494 1493 1492 1491 1489 1487 1486 1485 1485 1484 1483 1484 1485 1485 1485 1486 1488 1490 1493 1494 1498
1507 1512 1516 1533 1534 1538 1536 1501 1489 1491 1491 1490 1494 1497 1497 1496 1496 1495 1494 1495 1495 1495 1494 1495 1493 1492 1492 1491 1490 1488 1487 1484 1482 1480 1480 1479 1478 1477 1476 1476 1476 1477 1477 1478 1479 1481 1484 1487 1487